Grafton, ND

5:57 AM CST on February 13, 2016 (GMT -0600)
Grafton Municipal

Weather History for KGAF - November, 2012

Change the Weather History Date:

Thursday, November 29, 2012

  Actual Average Record
Temperature  
Mean Temperature 12 °F -  
Max Temperature 17 °F 26 °F - (-1)
Min Temperature 8 °F 10 °F - (-1)
Degree Days  
Heating Degree Days 52    
Moisture  
Dew Point 7 °F    
Average Humidity 78    
Maximum Humidity 85    
Minimum Humidity 68    
Precipitation  
Precipitation 0.00 in - - ()
Sea Level Pressure  
Sea Level Pressure 30.24 in    
Wind  
Wind Speed 12 mph (NE)    
Max Wind Speed 17 mph    
Max Gust Speed 22 mph    
Visibility 10 miles    
Events      
Averages and records for this station are not official NWS values.
T = Trace of Precipitation, MM = Missing Value Source: NWS Daily Summary

Daily Weather History Graph

Daily Weather History Graph

Search for Another Location

Airport or City:

Trip Planner

Search our weather history database for the weather conditions in past years. The results will help you decide how hot, cold, wet, or windy it might be!

Date:

Astronomy

Nov. 29, 2012 Rise Set
Actual Time 7:57 AM CST 4:37 PM CST
Civil Twilight 7:22 AM CST 5:13 PM CST
Nautical Twilight 6:42 AM CST 5:52 PM CST
Astronomical Twilight 6:05 AM CST 6:30 PM CST
Moon 5:41 PM CST (11/29) 8:46 AM CST (11/29)
Length of Visible Light 9h 51m
Length of Day
8h 39m
Full, 99% of the Moon is Illuminated
Nov 29
Full
Dec 6
Last Quarter
Dec 13
New
Dec 19
First Quarter
Dec 28
Full

Hourly Weather History & Observations

Time (CST) Temp. Windchill Dew Point Humidity Pressure Visibility Wind Dir Wind Speed Gust Speed Precip Events Conditions
12:15 AM 10.4 °F -5.4 °F 6.8 °F 85% 30.23 in 10.0 mi North 13.8 mph - N/A   Scattered Clouds
12:35 AM 10.4 °F -4.1 °F 6.8 °F 85% 30.23 in 10.0 mi NNE 11.5 mph - N/A   Scattered Clouds
12:55 AM 10.4 °F -3.3 °F 5.0 °F 79% 30.23 in 10.0 mi NNE 10.4 mph - N/A   Mostly Cloudy
1:15 AM 10.4 °F -3.3 °F 5.0 °F 79% 30.23 in 10.0 mi North 10.4 mph - N/A   Partly Cloudy
1:35 AM 10.4 °F -5.4 °F 5.0 °F 79% 30.24 in 10.0 mi North 13.8 mph 17.3 mph N/A   Mostly Cloudy
1:55 AM 10.4 °F -4.8 °F 5.0 °F 79% 30.23 in 10.0 mi NNE 12.7 mph 19.6 mph N/A   Overcast
2:15 AM 10.4 °F -7.2 °F 5.0 °F 79% 30.23 in 10.0 mi NNE 17.3 mph - N/A   Overcast
2:35 AM 10.4 °F -5.4 °F 5.0 °F 79% 30.23 in 10.0 mi NNE 13.8 mph 21.9 mph N/A   Overcast
2:55 AM 10.4 °F -4.8 °F 5.0 °F 79% 30.24 in 10.0 mi NNE 12.7 mph - N/A   Overcast
3:15 AM 10.4 °F -4.1 °F 5.0 °F 79% 30.24 in 10.0 mi NNE 11.5 mph - N/A   Overcast
3:35 AM 8.6 °F -6.3 °F 5.0 °F 85% 30.23 in 10.0 mi NNE 11.5 mph - N/A   Overcast
3:55 AM 8.6 °F -7.7 °F 5.0 °F 85% 30.24 in 10.0 mi NNE 13.8 mph - N/A   Overcast
4:15 AM 8.6 °F -7.7 °F 5.0 °F 85% 30.23 in 10.0 mi NNE 13.8 mph - N/A   Overcast
4:35 AM 8.6 °F -7.7 °F 5.0 °F 85% 30.25 in 10.0 mi North 13.8 mph - N/A   Overcast
4:55 AM 8.6 °F -6.3 °F 5.0 °F 85% 30.25 in 10.0 mi NNE 11.5 mph 17.3 mph N/A   Overcast
5:15 AM 8.6 °F -7.7 °F 3.2 °F 79% 30.25 in 10.0 mi North 13.8 mph - N/A   Overcast
5:35 AM 8.6 °F -7.7 °F 3.2 °F 79% 30.25 in 10.0 mi NNE 13.8 mph - N/A   Overcast
5:55 AM 8.6 °F -5.5 °F 3.2 °F 79% 30.25 in 10.0 mi NNE 10.4 mph - N/A   Overcast
6:15 AM 8.6 °F -8.3 °F 3.2 °F 79% 30.24 in 10.0 mi NNE 15.0 mph - N/A   Overcast
6:35 AM 8.6 °F -7.7 °F 5.0 °F 85% 30.24 in 10.0 mi NNE 13.8 mph - N/A   Overcast
6:55 AM 8.6 °F -7.7 °F 3.2 °F 79% 30.24 in 10.0 mi NNE 13.8 mph - N/A   Overcast
7:15 AM 8.6 °F -7.0 °F 3.2 °F 79% 30.24 in 10.0 mi NNE 12.7 mph - N/A   Mostly Cloudy
7:35 AM 8.6 °F -4.7 °F 5.0 °F 85% 30.25 in 10.0 mi NNE 9.2 mph - N/A   Scattered Clouds
7:55 AM 8.6 °F -3.7 °F 5.0 °F 85% 30.26 in 10.0 mi NNE 8.1 mph - N/A   Clear
8:15 AM 8.6 °F -4.7 °F 5.0 °F 85% 30.27 in 10.0 mi NNE 9.2 mph - N/A   Clear
8:35 AM 8.6 °F -4.7 °F 5.0 °F 85% 30.28 in 10.0 mi NNE 9.2 mph - N/A   Clear
8:55 AM 10.4 °F -4.8 °F 5.0 °F 79% 30.27 in 9.0 mi NNE 12.7 mph - N/A   Clear
9:15 AM 10.4 °F -3.3 °F 5.0 °F 79% 30.28 in 10.0 mi NE 10.4 mph - N/A   Mostly Cloudy
9:35 AM 10.4 °F -4.8 °F 5.0 °F 79% 30.28 in 10.0 mi NE 12.7 mph - N/A   Scattered Clouds
10:15 AM 10.4 °F -4.1 °F 6.8 °F 85% 30.28 in 10.0 mi NE 11.5 mph - N/A   Scattered Clouds
10:35 AM 12.2 °F -1.8 °F 6.8 °F 79% 30.28 in 10.0 mi NE 11.5 mph - N/A   Scattered Clouds
10:55 AM 12.2 °F -1.8 °F 6.8 °F 79% 30.28 in 10.0 mi ENE 11.5 mph - N/A   Mostly Cloudy
11:15 AM 12.2 °F -3.1 °F 6.8 °F 79% 30.27 in 10.0 mi NE 13.8 mph - N/A   Mostly Cloudy
11:35 AM 14.0 °F -0.2 °F 8.6 °F 79% 30.26 in 10.0 mi NE 12.7 mph - N/A   Mostly Cloudy
11:55 AM 14.0 °F 0.5 °F 8.6 °F 79% 30.26 in 10.0 mi NE 11.5 mph - N/A   Overcast
12:15 PM 14.0 °F 1.2 °F 8.6 °F 79% 30.26 in 10.0 mi ENE 10.4 mph - N/A   Mostly Cloudy
12:35 PM 14.0 °F 1.2 °F 8.6 °F 79% 30.26 in 10.0 mi NE 10.4 mph - N/A   Mostly Cloudy
12:55 PM 15.8 °F 1.4 °F 8.6 °F 73% 30.25 in 10.0 mi NE 13.8 mph - N/A   Mostly Cloudy
1:15 PM 15.8 °F 1.4 °F 10.4 °F 79% 30.24 in 10.0 mi ENE 13.8 mph - N/A   Mostly Cloudy
1:35 PM 15.8 °F 2.7 °F 8.6 °F 73% 30.24 in 10.0 mi NE 11.5 mph - N/A   Scattered Clouds
1:55 PM 15.8 °F 2.7 °F 10.4 °F 79% 30.24 in 10.0 mi ENE 11.5 mph - N/A   Scattered Clouds
2:15 PM 15.8 °F 2.7 °F 10.4 °F 79% 30.24 in 10.0 mi ENE 11.5 mph - N/A   Partly Cloudy
2:35 PM 15.8 °F 3.4 °F 10.4 °F 79% 30.23 in 10.0 mi ENE 10.4 mph - N/A   Partly Cloudy
2:55 PM 15.8 °F 2.1 °F 10.4 °F 79% 30.22 in 10.0 mi NE 12.7 mph - N/A   Partly Cloudy
3:15 PM 15.8 °F 1.4 °F 10.4 °F 79% 30.22 in 10.0 mi NE 13.8 mph - N/A   Partly Cloudy
3:35 PM 17.6 °F 3.7 °F 10.4 °F 73% 30.22 in 10.0 mi NE 13.8 mph - N/A   Partly Cloudy
3:55 PM 17.6 °F 3.2 °F 10.4 °F 73% 30.22 in 10.0 mi NE 15.0 mph - N/A   Clear
4:15 PM 17.6 °F 4.3 °F 8.6 °F 68% 30.22 in 10.0 mi ENE 12.7 mph - N/A   Clear
4:35 PM 15.8 °F 0.9 °F 8.6 °F 73% 30.22 in 10.0 mi ENE 15.0 mph - N/A   Clear
4:55 PM 15.8 °F 1.4 °F 10.4 °F 79% 30.21 in 10.0 mi NE 13.8 mph - N/A   Clear
5:15 PM 15.8 °F 0.9 °F 8.6 °F 73% 30.21 in 10.0 mi NE 15.0 mph - N/A   Clear
5:35 PM 15.8 °F 1.4 °F 8.6 °F 73% 30.22 in 10.0 mi ENE 13.8 mph 20.7 mph N/A   Clear
5:55 PM 15.8 °F 2.7 °F 8.6 °F 73% 30.22 in 10.0 mi ENE 11.5 mph - N/A   Clear
6:15 PM 15.8 °F 1.4 °F 8.6 °F 73% 30.21 in 10.0 mi ENE 13.8 mph - N/A   Clear
6:35 PM 15.8 °F 3.4 °F 8.6 °F 73% 30.22 in 10.0 mi ENE 10.4 mph - N/A   Scattered Clouds
6:55 PM 15.8 °F 3.4 °F 8.6 °F 73% 30.23 in 10.0 mi ENE 10.4 mph 17.3 mph N/A   Partly Cloudy
7:15 PM 15.8 °F 3.4 °F 8.6 °F 73% 30.23 in 10.0 mi ENE 10.4 mph - N/A   Clear
7:35 PM 15.8 °F 3.4 °F 8.6 °F 73% 30.22 in 10.0 mi ENE 10.4 mph - N/A   Clear
7:55 PM 15.8 °F 2.7 °F 8.6 °F 73% 30.22 in 10.0 mi ENE 11.5 mph - N/A   Clear
8:15 PM 15.8 °F 2.7 °F 8.6 °F 73% 30.23 in 10.0 mi ENE 11.5 mph - N/A   Clear
8:35 PM 15.8 °F 3.4 °F 8.6 °F 73% 30.22 in 10.0 mi ENE 10.4 mph - N/A   Scattered Clouds
8:55 PM 15.8 °F 4.2 °F 8.6 °F 73% 30.23 in 10.0 mi ENE 9.2 mph - N/A   Overcast
9:15 PM 15.8 °F 5.1 °F 10.4 °F 79% 30.22 in 10.0 mi ENE 8.1 mph - N/A   Overcast
9:35 PM 15.8 °F 3.4 °F 10.4 °F 79% 30.22 in 10.0 mi East 10.4 mph - N/A   Overcast
9:55 PM 15.8 °F 4.2 °F 10.4 °F 79% 30.22 in 10.0 mi East 9.2 mph - N/A   Overcast
10:15 PM 17.6 °F 7.3 °F 10.4 °F 73% 30.23 in 10.0 mi East 8.1 mph - N/A   Overcast
10:35 PM 17.6 °F 6.4 °F 8.6 °F 68% 30.23 in 10.0 mi East 9.2 mph - N/A   Overcast
10:55 PM 17.6 °F 6.4 °F 8.6 °F 68% 30.24 in 10.0 mi East 9.2 mph - N/A   Overcast
11:15 PM 17.6 °F 6.4 °F 8.6 °F 68% 30.23 in 10.0 mi East 9.2 mph - N/A   Overcast
11:35 PM 17.6 °F 4.3 °F 10.4 °F 73% 30.22 in 10.0 mi East 12.7 mph - N/A   Overcast
11:55 PM 17.6 °F 5.0 °F 10.4 °F 73% 30.20 in 10.0 mi East 11.5 mph - N/A   Overcast